Regional Weather Roundup
Issued by NWS Midland/Odessa, TX

Skip options and go directly to product.
Home | Oldest Version | Previous Version | Current Version | All | Text Only | Save Text | Print | Product List | Glossary On

Skip product version selection by date and time.   
744
ASUS44 KMAF 291210
RWRMAF
MIDLAND AREA WEATHER ROUNDUP
NATIONAL WEATHER SERVICE MIDLAND TX
700 AM CDT TUE JUL 29 2014

...IN SOUTHWEST TEXAS AND SOUTHEAST NEW MEXICO...

CITY           SKY/WX    TMP DP  RH WIND       PRES   REMARKS
ALPINE         PTCLDY    67  57  69 SW7       30.30S
ANDREWS        FAIR      71  63  75 E7        30.20S
ARTESIA        CLOUDY    73  66  78 NE6       30.21R
BIG SPRING     CLEAR     74  62  66 E6        30.20R
CARLSBAD       MOCLDY    73  60  63 N3        30.17S
DRYDEN           N/A     77  62  59 NE6       30.11R
FORT STOCKTON  CLEAR     74  58  57 SE9       30.16R
GUAD PASS      PTCLDY    66  60  81 NE17      30.31R
HOBBS          MOCLDY    72  63  73 NE7       30.24
MARFA          CLEAR     61  55  82 CALM      30.29S
MIDLAND AIRPK  CLEAR     73  65  74 E5        30.19R
MIDLAND INTL   CLEAR     73  64  73 E6        30.18R
ODESSA         CLEAR     73  63  70 E7        30.19R
PECOS          CLEAR     74  59  60 E8        30.13R
PRESIDIO       FAIR      80  55  41 NE8       30.12R
SEMINOLE       CLOUDY    70  60  71 E5        30.23R
SNYDER         PTCLDY    68  59  72 NE5       30.19S
WINK           PTCLDY    75  64  68 E7        30.14S
$$
...OTHER STATIONS IN TEXAS...

CITY           SKY/WX    TMP DP  RH WIND       PRES   REMARKS
ABILENE          N/A     72  61  68 MISG      30.16S
AMARILLO       PTCLDY    63  58  83 S9        30.26R
AUSTIN         PTCLDY    71  69  93 CALM      30.08R
BROWNSVILLE    CLEAR     76  75  97 SE3       30.05R
CORPUS CHRISTI PTCLDY    71  70  96 CALM      30.06R FOG
DALLAS FTW     CLOUDY    76  61  59 NE5       30.12R
DEL RIO        CLEAR     79  66  64 E6        30.06R
EL PASO        MOCLDY    73  62  68 N16       30.18R
HOUSTON INT    MOCLDY    80  76  87 SW3       30.06S
LUBBOCK        LGT RAIN  66  58  75 CALM      30.25R
SAN ANGELO     CLEAR     72  66  81 NE7       30.14R
SAN ANTONIO    PTCLDY    76  68  76 CALM      30.09S
WACO           PTCLDY    74  68  81 N3        30.11R
WICHITA FALLS  NOT AVBL
$$
...OTHER LOCATIONS IN NEW MEXICO...

CITY           SKY/WX    TMP DP  RH WIND       PRES   REMARKS
ALAMAGORDO     LGT RAIN  68  64  88 N15       30.24R
ALBUQUERQUE    PTCLDY    67  61  81 CALM      30.31R
CANNON AFB     LGT RAIN  66  64  94 SE5       30.28S
CLOVIS         NOT AVBL
HOLLOMAN AFB   LGT RAIN  68  68 100 NW16      30.23R FOG
ROSWELL        LGT RAIN  71  68  90 NW5       30.22S
RUIDOSO        LGT RAIN  57  57 100 CALM      30.43R VSB<1/4
SANTA FE       CLOUDY    60  58  92 CALM      30.36S
TRUTH OR CONSE CLOUDY    69  61  75 N6        30.26R
TUCUMCARI      LGT RAIN  69  66  90 S5        30.26R
$$

USA.gov is the U.S. government's official web portal to all federal, state and local government web resources and services.